Time,TemperatureF,DewpointF,PressureIn,WindDirection,WindDirectionDegrees,WindSpeedMPH,WindSpeedGustMPH,Humidity,HourlyPrecipIn,Conditions,Clouds,dailyrainin,SoftwareType,DateUTC
2013-04-27 00:01:00,60.0,34.0,-100.00,North,5,1.0,6.0,37,-99.99,,,-99.99,,2013-04-27 07:01:00,
2013-04-27 00:11:00,60.0,34.0,-100.00,North,5,1.0,6.0,37,-99.99,,,-99.99,,2013-04-27 07:11:00,
2013-04-27 01:01:00,55.0,36.0,-100.00,North,5,0.0,1.0,48,-99.99,,,-99.99,,2013-04-27 08:01:00,
2013-04-27 01:11:00,55.0,36.0,-100.00,North,5,0.0,1.0,48,-99.99,,,-99.99,,2013-04-27 08:11:00,
2013-04-27 02:01:00,53.0,37.0,-100.00,ENE,65,2.0,6.0,54,-99.99,,,-99.99,,2013-04-27 09:01:00,
2013-04-27 03:02:00,50.0,37.0,-100.00,North,5,1.0,3.0,60,-99.99,,,-99.99,,2013-04-27 10:02:00,
2013-04-27 03:12:00,50.0,37.0,-100.00,North,5,1.0,3.0,60,-99.99,,,-99.99,,2013-04-27 10:12:00,
2013-04-27 04:02:00,48.0,36.0,-100.00,ESE,120,0.0,7.0,62,-99.99,,,-99.99,,2013-04-27 11:02:00,
2013-04-27 05:01:00,46.0,37.0,-100.00,South,190,1.0,3.0,70,-99.99,,,-99.99,,2013-04-27 12:01:00,
2013-04-27 05:11:00,46.0,37.0,-100.00,South,190,1.0,3.0,70,-99.99,,,-99.99,,2013-04-27 12:11:00,
2013-04-27 06:02:00,44.0,36.0,-100.00,North,5,1.0,5.0,73,-99.99,,,-99.99,,2013-04-27 13:02:00,
2013-04-27 07:02:00,44.0,35.0,-100.00,SE,135,1.0,3.0,70,-99.99,,,-99.99,,2013-04-27 14:02:00,
2013-04-27 07:11:00,44.0,35.0,-100.00,SE,135,1.0,3.0,70,-99.99,,,-99.99,,2013-04-27 14:11:00,
2013-04-27 08:01:00,43.0,36.0,-100.00,SE,130,0.0,1.0,76,-99.99,,,-99.99,,2013-04-27 15:01:00,
2013-04-27 08:10:00,48.0,37.0,-100.00,East,90,1.0,3.0,65,-99.99,,,-99.99,,2013-04-27 15:10:00,
2013-04-27 09:02:00,48.0,37.0,-100.00,East,90,1.0,3.0,65,-99.99,,,-99.99,,2013-04-27 16:02:00,
2013-04-27 10:02:00,53.0,37.0,-100.00,ESE,120,0.0,2.0,54,-99.99,,,-99.99,,2013-04-27 17:02:00,
2013-04-27 10:10:00,64.0,37.0,-100.00,East,95,2.0,5.0,36,-99.99,,,-99.99,,2013-04-27 17:10:00,
2013-04-27 11:00:00,71.0,32.0,-100.00,South,175,9.0,29.0,23,-99.99,,,-99.99,,2013-04-27 18:00:00,
2013-04-27 11:02:00,64.0,37.0,-100.00,East,95,2.0,5.0,36,-99.99,,,-99.99,,2013-04-27 18:02:00,
2013-04-27 12:10:00,69.0,36.0,-100.00,SE,135,7.0,15.0,29,-99.99,,,-99.99,,2013-04-27 19:10:00,
2013-04-27 13:00:00,68.0,37.0,-100.00,ENE,70,6.0,12.0,31,-99.99,,,-99.99,,2013-04-27 20:00:00,
2013-04-27 13:02:00,69.0,36.0,-100.00,SE,135,7.0,15.0,29,-99.99,,,-99.99,,2013-04-27 20:02:00,
2013-04-27 15:02:00,69.0,36.0,-100.00,ESE,115,9.0,20.0,29,-99.99,,,-99.99,,2013-04-27 22:02:00,
2013-04-27 15:12:00,69.0,36.0,-100.00,ESE,115,9.0,20.0,29,-99.99,,,-99.99,,2013-04-27 22:12:00,
2013-04-27 16:02:00,69.0,37.0,-100.00,East,95,13.0,23.0,30,-99.99,,,-99.99,,2013-04-27 23:02:00,
2013-04-27 16:10:00,67.0,38.0,-100.00,ESE,110,10.0,22.0,34,-99.99,,,-99.99,,2013-04-27 23:10:00,
2013-04-27 17:01:00,67.0,38.0,-100.00,ESE,110,10.0,22.0,34,-99.99,,,-99.99,,2013-04-28 00:01:00,
2013-04-27 18:01:00,64.0,38.0,-100.00,ESE,115,7.0,17.0,38,-99.99,,,-99.99,,2013-04-28 01:01:00,
2013-04-27 18:11:00,64.0,38.0,-100.00,ESE,115,7.0,17.0,38,-99.99,,,-99.99,,2013-04-28 01:11:00,
2013-04-27 19:01:00,61.0,38.0,-100.00,East,85,9.0,14.0,42,-99.99,,,-99.99,,2013-04-28 02:01:00,
2013-04-27 20:01:00,58.0,38.0,-100.00,East,100,7.0,14.0,47,-99.99,,,-99.99,,2013-04-28 03:01:00,
2013-04-27 20:11:00,58.0,38.0,-100.00,East,100,7.0,14.0,47,-99.99,,,-99.99,,2013-04-28 03:11:00,
2013-04-27 21:02:00,56.0,38.0,-100.00,South,175,3.0,9.0,50,-99.99,,,-99.99,,2013-04-28 04:02:00,
2013-04-27 22:02:00,55.0,39.0,-100.00,South,175,3.0,7.0,54,-99.99,,,-99.99,,2013-04-28 05:02:00,
2013-04-27 22:12:00,55.0,39.0,-100.00,South,175,3.0,7.0,54,-99.99,,,-99.99,,2013-04-28 05:12:00,
2013-04-27 23:01:00,53.0,39.0,-100.00,SW,215,2.0,5.0,58,-99.99,,,-99.99,,2013-04-28 06:01:00,